Regional Weather Roundup
Issued by NWS Kansas City/Pleasant Hill, MO

Home | Current Version | Previous Version | Text Only | Print | Product List | Glossary On
Versions: 1 2 3 4 5 6 7 8 9 10 11 12 13 14 15 16 17 18 19 20 21 22 23 24 25 26 27 28 29 30 31 32 33 34 35 36 37 38 39 40 41 42 43 44 45 46 47 48 49 50
028
ASUS43 KEAX 300410
RWREAX

WEATHER ROUNDUP FOR EASTERN KANSAS AND NORTHWEST MISSOURI
NATIONAL WEATHER SERVICE KANSAS CITY/PLEASANT HILL MO
1100 PM CDT WED MAR 29 2017

KSZ040-057-103>105-MOZ028-029-037-043-300500-
...KANSAS CITY METROPOLITAN AREA...

CITY           SKY/WX    TMP DP  RH WIND       PRES   REMARKS
K.C. INTL      DRIZZLE   53  53 100 E14       29.66F FOG
K.C. DOWNTOWN  MOCLDY    55  53  93 NE8       29.64F
LEES SUMMIT    CLOUDY    54  54 100 NE12      29.65F FOG
OLATHE - IXD   CLOUDY    56  53  90 E6        29.64S
OLATHE - OJC   CLOUDY    53  53 100 E12       29.64F FOG
LAWRENCE       MOCLDY    55  55 100 NE13      29.62F FOG

$$

MOZ001>008-011>017-020>025-030>033-038>040-044>046-053-054-300500-
...NORTHERN AND CENTRAL MISSOURI...

CITY           SKY/WX    TMP DP  RH WIND       PRES   REMARKS
ST. JOSEPH     LGT RAIN  53  52  96 E21G29    29.66F FOG
WARRENSBURG    CLOUDY    55  54  94 CALM      29.65R THUNDER FOG
WHITEMAN AFB   TSTM      57  57 100 N8        29.62F FOG
CLINTON        MOCLDY    59  57  94 NW7       29.63F
SEDALIA        CLEAR     61  59  93 CALM      29.63F
WARSAW         NOT AVBL
CHILLICOTHE      N/A     53  51  93 NE10G17   29.71S
KIRKSVILLE     CLOUDY    50  32  50 NE13      29.74S

$$

MOZ041-047>049-056>058-063>065-088>090-097-300500-
...EASTERN AND SOUTHERN MISSOURI...

CITY           SKY/WX    TMP DP  RH WIND       PRES   REMARKS
ST. LOUIS INTL LGT RAIN  62  53  72 SE16      29.76F
SPIRIT OF STL  CLOUDY    63  56  78 E15G22    29.71F
COLUMBIA       LGT RAIN  60  59  96 SE8       29.67F
JEFFERSON CITY   N/A     63  32  31 E3        29.67F THUNDER
ROLLA          LGT RAIN  63  62  97 SE14G32   29.67F FOG
OSAGE BEACH    CLOUDY    62  60  93 SE6       29.66F
SPRINGFIELD    RAIN      62  56  80 W12       29.66S
JOPLIN         MOCLDY    58  51  78 SW13      29.67F
WEST PLAINS    CLOUDY    64  60  87 SW6       29.71F

$$

IAZ060-094-KSZ022-034>040-054-083-096-NEZ052-066-093-300500-
...KANSAS...SOUTHEAST NEBRASKA AND IOWA...

CITY           SKY/WX    TMP DP  RH WIND       PRES   REMARKS
TOPEKA         CLOUDY    55  55 100 E9        29.60F
MANHATTAN      LGT RAIN  48  47  96 NE10      29.60F
EMPORIA        CLOUDY    51  47  86 S13       29.59F
CHANUTE        PTCLDY    51  45  79 S15       29.63F
WICHITA        CLOUDY    44  44 100 NW20      29.65R
OMAHA          CLOUDY    44  38  79 NE16G29   29.81S
LINCOLN        LGT RAIN  42  41  96 NE18      29.76F FOG     WCI  34
FALLS CITY     CLOUDY    49  48  97 NE9       29.68F
LAMONI         CLOUDY    47  45  93 NE16G26   29.76S
DES MOINES     PTCLDY    44  41  89 E22G29    29.84F

$$





USA.gov is the U.S. government's official web portal to all federal, state and local government web resources and services.